Location: Devore Heights
(34.2372°N, 117.4156°W)
Time: 09:22:05
(UTC+00:00)

Altair - Pass Details

Date: 14 September 2024
Orbit: 1501 x 1682 km, 47.2° (Epoch: 07 October)

Event Time Altitude Azimuth Distance (km) Brightness Sun altitude
Rises 16:09:45 0° 305° (NW) 4,938 9.6 31.1°
Reaches altitude 10° 16:12:59 10° 307° (NW) 3,946 9.2 31.8°
Maximum altitude 16:23:09 72° 32° (NNE) 1,730 8.4 33.7°
Drops below altitude 10° 16:33:02 10° 116° (ESE) 3,845 11.0 35.6°
Sets 16:36:07 0° 119° (ESE) 4,806 11.1 36.2°
